Terminal Aerodrome Forecast
Issued by NWS Indianapolis, IN

Home | Current Version | Previous Version | Text Only | Print | Product List | Glossary On
Versions: 1 2 3 4 5 6 7 8 9 10 11 12 13 14 15 16 17 18 19 20 21 22 23 24 25 26 27 28 29
000
FTUS43 KIND 022000 AAA
TAFIND
TAF AMD
KIND 022021Z 0220/0324 29009KT P6SM SCT025 BKN200
     FM030000 29005KT P6SM SCT035
     FM030700 VRB02KT 3SM BR SCT006
     FM031400 21004KT P6SM FEW030=

USA.gov is the U.S. government's official web portal to all federal, state and local government web resources and services.